User: anonymous   Login
Location: Gesvres
(49.0440°N, 2.8518°E)
Time: 00:34:41
(UTC+00:00)
Language:

CZ-4C R/B - Orbit

View from above orbital plane
View from above orbital plane
View from above satellite
View from above satellite

Ground track
Ground track

The orbit data is extracted from the following two-line orbital elements,

1 39211U 13037D   23156.53704047  .00006252  00000-0  32117-3 0  9999
2 39211  98.0720 350.0743 0111043 149.7849 210.9846 15.11600555542334
Epoch (UTC): 05 June 2023 12:53:20
Eccentricity: 0.0111043
inclination: 98.0720°
perigee height: 454 km
apogee height: 608 km
right ascension of ascending node: 350.0743°
argument of perigee: 149.7849°
revolutions per day: 15.11600555
mean anomaly at epoch: 210.9846°
orbit number at epoch: 54233

The dashed part of the orbit path shows where the satellite is in the earth's shadow,  

DLR